Weather History for KGPI - October, 2012

Change the Weather History Date:

Monday, October 29, 2012

  Actual Average Record
Temperature  
Mean Temperature 46 °F 38 °F  
Max Temperature 54 °F 48 °F 66 °F (1921)
Min Temperature 38 °F 27 °F 5 °F (1971)
Degree Days  
Heating Degree Days 19 27  
Month to date heating degree days 663 652  
Since 1 July heating degree days 1049 1152  
Cooling Degree Days 0 0  
Month to date cooling degree days 0 0  
Year to date cooling degree days 192 147  
Moisture  
Dew Point 42 °F    
Average Humidity 89    
Maximum Humidity 100    
Minimum Humidity 77    
Precipitation  
Precipitation 0.46 in 0.04 in 0.68 in (1917)
Month to date precipitation 2.53 0.93  
Year to date precipitation 17.48 13.92  
Snow  
Snow 0.00 in - - ()
Month to date snowfall 2.0  
Year to date snowfall 27.1  
Since 1 July snowfall 2.0  
Snow Depth 0.00 in    
Sea Level Pressure  
Sea Level Pressure 29.92 in    
Wind  
Wind Speed 5 mph (SSW)    
Max Wind Speed 20 mph    
Max Gust Speed 28 mph    
Visibility 6 miles    
Events Fog , Rain    
T = Trace of Precipitation, MM = Missing Value Source: NWS Daily Summary

Daily Weather History Graph

Daily Weather History Graph

Search for Another Location

Airport or City:

Trip Planner

Search our weather history database for the weather conditions in past years. The results will help you decide how hot, cold, wet, or windy it might be!

Date:

Astronomy

Oct. 29, 2012 Rise Set
Actual Time 8:18 AM MDT 6:21 PM MDT
Civil Twilight 7:46 AM MDT 6:54 PM MDT
Nautical Twilight 7:09 AM MDT 7:30 PM MDT
Astronomical Twilight 6:33 AM MDT 8:07 PM MDT
Moon 6:12 PM MDT (10/29) 8:15 AM MDT (10/29)
Length of Visible Light 11h 07m
Length of Day
10h 02m
Full, 100% of the Moon is Illuminated
Oct 29
Full
Oct 29
Full
Nov 6
Last Quarter
Nov 13
New
Nov 20
First Quarter

Hourly Weather History & Observations

Time (MDT) Temp. Windchill Dew Point Humidity Pressure Visibility Wind Dir Wind Speed Gust Speed Precip Events Conditions
12:55 AM 37.9 °F - 37.9 °F 100% 29.98 in 0.2 mi Calm Calm - N/A Fog Fog
1:55 AM 37.9 °F - 37.9 °F 100% 29.96 in 0.2 mi Calm Calm - N/A Fog Fog
2:17 AM 37.4 °F - 37.4 °F 100% 29.91 in 0.5 mi Calm Calm - 0.00 in Fog , Rain Light Rain
2:39 AM 37.4 °F - 37.4 °F 100% 29.91 in 1.0 mi Calm Calm - 0.01 in Rain Light Rain
2:55 AM 37.9 °F - 37.9 °F 100% 29.95 in 1.2 mi Calm Calm - 0.01 in Rain Light Rain
3:13 AM 37.4 °F 34.9 °F 37.4 °F 100% 29.90 in 1.5 mi Variable 3.5 mph - 0.00 in Rain Light Rain
3:22 AM 37.4 °F - 37.4 °F 100% 29.90 in 2.5 mi Calm Calm - 0.01 in Rain Light Rain
3:32 AM 37.4 °F - 37.4 °F 100% 29.90 in 3.0 mi Calm Calm - 0.01 in Rain Light Rain
3:55 AM 37.9 °F - 37.9 °F 100% 29.92 in 4.0 mi Calm Calm - 0.02 in Rain Light Rain
4:34 AM 37.4 °F 33.8 °F 37.4 °F 100% 29.87 in 6.0 mi WNW 4.6 mph - N/A Rain Light Rain
4:55 AM 37.9 °F - 37.9 °F 100% 29.91 in 5.0 mi Calm Calm - 0.04 in Rain Light Rain
5:55 AM 37.9 °F - 37.9 °F 100% 29.90 in 5.0 mi Calm Calm - 0.04 in Rain Light Rain
6:55 AM 39.0 °F - 37.9 °F 96% 29.88 in 5.0 mi Calm Calm - 0.05 in Rain Rain
7:55 AM 39.0 °F - 39.0 °F 100% 29.87 in 4.0 mi Calm Calm - 0.09 in Rain Light Rain
8:23 AM 39.2 °F - 39.2 °F 100% 29.82 in 6.0 mi Calm Calm - 0.02 in Rain Light Rain
8:55 AM 39.9 °F 37.8 °F 39.0 °F 97% 29.88 in 1.5 mi West 3.5 mph - 0.04 in Rain Light Rain
9:09 AM 39.2 °F 37.0 °F 39.2 °F 100% 29.84 in 4.0 mi SW 3.5 mph - 0.02 in Rain Rain
9:55 AM 41.0 °F 39.0 °F 39.9 °F 96% 29.91 in 10.0 mi SW 3.5 mph - 0.07 in Rain Light Rain
10:55 AM 42.1 °F 40.2 °F 42.1 °F 100% 29.90 in 10.0 mi WSW 3.5 mph - 0.00 in   Overcast
11:44 AM 44.6 °F 41.4 °F 42.8 °F 93% 29.86 in 9.0 mi WSW 5.8 mph - 0.00 in Rain Light Rain
11:55 AM 44.1 °F 42.5 °F 43.0 °F 96% 29.90 in 5.0 mi SW 3.5 mph - 0.02 in Rain Light Rain
12:55 PM 48.0 °F - 46.9 °F 96% 29.90 in 10.0 mi SSW 6.9 mph - 0.00 in   Overcast
1:55 PM 52.0 °F - 50.0 °F 93% 29.88 in 10.0 mi South 8.1 mph - 0.00 in   Overcast
2:55 PM 52.0 °F - 50.0 °F 93% 29.89 in 10.0 mi SSE 12.7 mph 19.6 mph 0.01 in   Overcast
3:27 PM 51.8 °F - 50.0 °F 94% 29.86 in 10.0 mi SSE 11.5 mph - N/A   Overcast
3:55 PM 53.1 °F - 50.0 °F 89% 29.90 in 10.0 mi SE 17.3 mph - N/A   Mostly Cloudy
4:55 PM 53.1 °F - 48.9 °F 86% 29.92 in 10.0 mi SSE 11.5 mph - N/A   Overcast
5:55 PM 52.0 °F - 45.0 °F 77% 29.94 in 10.0 mi South 11.5 mph - 0.04 in   Overcast
6:55 PM 48.9 °F - 45.0 °F 86% 29.97 in 10.0 mi South 6.9 mph - 0.03 in Rain Light Rain
7:55 PM 48.0 °F - 44.1 °F 86% 30.00 in 10.0 mi SE 4.6 mph - 0.00 in   Scattered Clouds
8:55 PM 45.0 °F - 43.0 °F 93% 30.01 in 10.0 mi Calm Calm - N/A   Scattered Clouds
9:55 PM 43.0 °F - 42.1 °F 97% 30.02 in 10.0 mi Calm Calm - N/A   Clear
10:55 PM 48.0 °F - 43.0 °F 83% 30.03 in 10.0 mi SSE 10.4 mph - N/A   Overcast
11:55 PM 48.0 °F - 43.0 °F 83% 30.05 in 10.0 mi North - - N/A   Overcast